Weather History for Las Vegas, NV

Change the Weather History Date:

Thursday, April 26, 2012

  Actual Average Record
Temperature  
Mean Temperature 69 °F 70 °F  
Max Temperature 75 °F 82 °F 97 °F (1996)
Min Temperature 62 °F 59 °F 42 °F (1967)
Degree Days  
Heating Degree Days 0 1  
Month to date heating degree days 61 60  
Since 1 July heating degree days 1894 1940  
Cooling Degree Days 4 7  
Month to date cooling degree days 156 100  
Year to date cooling degree days 197 131  
Growing Degree Days 20 (Base 50)    
Moisture  
Dew Point 44 °F    
Average Humidity 39    
Maximum Humidity 52    
Minimum Humidity 25    
Precipitation  
Precipitation T in 0.01 in 0.05 in (1963)
Month to date precipitation 0.01 0.14  
Year to date precipitation 0.25 1.88  
Snow  
Snow 0.00 in 0.00 in 0.00 in ()
Month to date snowfall 0.0 0.0  
Since 1 July snowfall 0.0 0.3  
Snow Depth 0.00 in    
Sea Level Pressure  
Sea Level Pressure 29.69 in    
Wind  
Wind Speed 19 mph (SSW)    
Max Wind Speed 31 mph    
Max Gust Speed 43 mph    
Visibility 10 miles    
Events      
T = Trace of Precipitation, MM = Missing Value Source: NWS Daily Summary

Daily Weather History Graph

Daily Weather History Graph

Search for Another Location

Airport:

Trip Planner

Search our weather history database for the weather conditions in past years. The results will help you decide how hot, cold, wet, or windy it might be!

Date:

Astronomy

Apr. 26, 2012 Rise Set
Actual Time 5:52 AM PDT 7:24 PM PDT
Civil Twilight 5:25 AM PDT 7:51 PM PDT
Nautical Twilight 4:53 AM PDT 8:24 PM PDT
Astronomical Twilight 4:18 AM PDT 8:58 PM PDT
Moon 9:40 AM PDT (4/26) No Moon Set
Length of Visible Light 14h 25m
Length of Day
13h 31m
Waxing Crescent, 25% of the Moon is Illuminated
Apr 26
Waxing Crescent
Apr 29
First Quarter
May 5
Full
May 12
Last Quarter
May 20
New

Hourly Weather History & Observations

Time (PDT) Temp. Dew Point Humidity Pressure Visibility Wind Dir Wind Speed Gust Speed Precip Events Conditions
12:56 AM 73.0 °F 44.1 °F 35% 29.65 in 10.0 mi SSW 10.4 mph - N/A   Mostly Cloudy
1:56 AM 72.0 °F 44.1 °F 37% 29.62 in 10.0 mi South 8.1 mph - N/A   Mostly Cloudy
2:56 AM 73.9 °F 35.1 °F 24% 29.61 in 10.0 mi South 10.4 mph - N/A   Mostly Cloudy
3:56 AM 73.9 °F 39.9 °F 29% 29.59 in 10.0 mi South 10.4 mph - 0.00 in   Overcast
4:56 AM 73.0 °F 39.0 °F 29% 29.59 in 10.0 mi South 16.1 mph - 0.00 in   Overcast
5:56 AM 69.1 °F 43.0 °F 39% 29.62 in 10.0 mi SSW 15.0 mph - N/A   Mostly Cloudy
6:56 AM 66.2 °F 44.6 °F 46% 29.70 in 10.0 mi SSW 16.1 mph 26.5 mph N/A   Mostly Cloudy
7:56 AM 66.0 °F 45.0 °F 47% 29.67 in 10.0 mi SSW 20.7 mph 29.9 mph N/A   Mostly Cloudy
8:56 AM 68.0 °F 46.0 °F 45% 29.68 in 10.0 mi SSW 18.4 mph 26.5 mph N/A   Mostly Cloudy
9:56 AM 66.9 °F 44.1 °F 44% 29.70 in 10.0 mi South 21.9 mph 29.9 mph N/A   Mostly Cloudy
10:56 AM 68.0 °F 46.0 °F 45% 29.71 in 10.0 mi South 21.9 mph 29.9 mph N/A   Mostly Cloudy
11:56 AM 72.0 °F 43.0 °F 35% 29.71 in 10.0 mi South 18.4 mph 25.3 mph N/A   Mostly Cloudy
12:56 PM 72.0 °F 44.1 °F 37% 29.70 in 10.0 mi SSW 18.4 mph 28.8 mph N/A   Mostly Cloudy
1:56 PM 71.1 °F 46.0 °F 41% 29.72 in 10.0 mi SSW 20.7 mph 33.4 mph N/A   Mostly Cloudy
2:56 PM 72.0 °F 46.9 °F 41% 29.70 in 10.0 mi SSW 19.6 mph 32.2 mph N/A   Mostly Cloudy
3:56 PM 72.0 °F 46.0 °F 40% 29.69 in 10.0 mi SSW 25.3 mph 32.2 mph N/A   Mostly Cloudy
4:56 PM 73.9 °F 45.0 °F 35% 29.68 in 10.0 mi South 18.4 mph 28.8 mph N/A   Mostly Cloudy
5:56 PM 73.0 °F 44.1 °F 35% 29.69 in 10.0 mi SW 25.3 mph 35.7 mph N/A   Mostly Cloudy
6:56 PM 71.1 °F 45.0 °F 39% 29.69 in 10.0 mi SSW 20.7 mph 32.2 mph N/A   Mostly Cloudy
7:56 PM 68.0 °F 44.1 °F 42% 29.72 in 10.0 mi SSW 24.2 mph 42.6 mph N/A   Scattered Clouds
8:56 PM 66.9 °F 44.1 °F 44% 29.74 in 10.0 mi SSW 27.6 mph 33.4 mph N/A   Partly Cloudy
9:56 PM 64.9 °F 45.0 °F 48% 29.76 in 9.0 mi SSW 19.6 mph 31.1 mph N/A   Partly Cloudy
10:56 PM 64.0 °F 46.0 °F 52% 29.77 in 10.0 mi SSW 19.6 mph 31.1 mph N/A   Partly Cloudy
11:56 PM 64.0 °F 44.1 °F 48% 29.80 in 10.0 mi SSW 15.0 mph - N/A   Clear